Time,TemperatureF,DewpointF,PressureIn,WindDirection,WindDirectionDegrees,WindSpeedMPH,WindSpeedGustMPH,Humidity,HourlyPrecipIn,Conditions,Clouds,dailyrainin,SoftwareType,DateUTC
2013-02-17 00:00:00,27.2,17.7,29.71,NW,306,0.0,8.0,67,0.00,,,0.07,VWS V14.01,2013-02-17 05:00:00,
2013-02-17 00:01:00,27.2,17.7,29.71,North,350,0.0,8.0,67,0.00,,,0.00,VWS V14.01,2013-02-17 05:01:00,
2013-02-17 00:06:00,27.1,17.6,29.71,ENE,69,2.0,6.0,67,0.00,,,0.00,VWS V14.01,2013-02-17 05:06:00,
2013-02-17 00:11:00,27.1,17.6,29.71,NW,311,2.0,6.0,67,0.00,,,0.00,VWS V14.01,2013-02-17 05:11:00,
2013-02-17 00:16:00,27.0,17.5,29.72,North,9,1.0,6.0,67,0.00,,,0.00,VWS V14.01,2013-02-17 05:16:00,
2013-02-17 00:21:00,27.0,17.2,29.71,North,360,0.0,6.0,66,0.00,,,0.00,VWS V14.01,2013-02-17 05:21:00,
2013-02-17 00:26:00,26.9,16.7,29.71,NNW,340,0.0,6.0,65,0.00,,,0.00,VWS V14.01,2013-02-17 05:26:00,
2013-02-17 00:31:00,26.8,16.3,29.71,North,350,2.0,2.0,64,0.00,,,0.00,VWS V14.01,2013-02-17 05:31:00,
2013-02-17 00:36:00,26.7,16.2,29.70,NW,311,2.0,5.0,64,0.00,,,0.00,VWS V14.01,2013-02-17 05:36:00,
2013-02-17 00:41:00,26.6,15.7,29.70,NW,325,0.0,8.0,63,0.00,,,0.00,VWS V14.01,2013-02-17 05:41:00,
2013-02-17 00:46:00,26.5,15.6,29.70,NNW,338,2.0,8.0,63,0.00,,,0.00,VWS V14.01,2013-02-17 05:46:00,
2013-02-17 00:51:00,26.3,15.4,29.71,ENE,66,4.0,8.0,63,0.00,,,0.00,VWS V14.01,2013-02-17 05:51:00,
2013-02-17 00:56:00,26.2,15.3,29.71,NNW,342,4.0,13.0,63,0.00,,,0.00,VWS V14.01,2013-02-17 05:56:00,
2013-02-17 01:01:00,26.1,15.2,29.70,NE,41,1.0,2.0,63,0.00,,,0.00,VWS V14.01,2013-02-17 06:01:00,
2013-02-17 01:07:00,26.0,14.4,29.71,NNW,344,3.0,3.0,61,0.00,,,0.00,VWS V14.01,2013-02-17 06:07:00,
2013-02-17 01:12:00,25.9,14.3,29.71,South,180,4.0,4.0,61,0.00,,,0.00,VWS V14.01,2013-02-17 06:12:00,
2013-02-17 01:17:00,25.8,13.9,29.71,NNW,332,0.0,4.0,60,0.00,,,0.00,VWS V14.01,2013-02-17 06:17:00,
2013-02-17 01:22:00,25.7,13.8,29.70,WNW,302,0.0,6.0,60,0.00,,,0.00,VWS V14.01,2013-02-17 06:22:00,
2013-02-17 01:27:00,25.6,14.0,29.70,WNW,290,1.0,6.0,61,0.00,,,0.00,VWS V14.01,2013-02-17 06:27:00,
2013-02-17 01:32:00,25.5,13.2,29.70,North,5,1.0,4.0,59,0.00,,,0.00,VWS V14.01,2013-02-17 06:32:00,
2013-02-17 01:37:00,25.4,12.7,29.70,NW,323,0.0,5.0,58,0.00,,,0.00,VWS V14.01,2013-02-17 06:37:00,
2013-02-17 01:42:00,25.3,13.4,29.71,NNW,336,1.0,6.0,60,0.00,,,0.00,VWS V14.01,2013-02-17 06:42:00,
2013-02-17 01:47:00,25.2,12.5,29.70,ENE,78,0.0,6.0,58,0.00,,,0.00,VWS V14.01,2013-02-17 06:47:00,
2013-02-17 01:52:00,25.1,12.4,29.70,NW,306,2.0,6.0,58,0.00,,,0.00,VWS V14.01,2013-02-17 06:52:00,
2013-02-17 01:57:00,25.0,12.7,29.70,NW,319,0.0,6.0,59,0.00,,,0.00,VWS V14.01,2013-02-17 06:57:00,
2013-02-17 02:03:00,25.0,12.7,29.69,WNW,293,0.0,8.0,59,0.00,,,0.00,VWS V14.01,2013-02-17 07:03:00,
2013-02-17 02:08:00,24.9,11.8,29.69,NW,323,0.0,8.0,57,0.00,,,0.00,VWS V14.01,2013-02-17 07:08:00,
2013-02-17 02:13:00,24.7,11.6,29.68,ENE,65,1.0,9.0,57,0.00,,,0.00,VWS V14.01,2013-02-17 07:13:00,
2013-02-17 02:18:00,24.7,12.0,29.68,NW,325,0.0,9.0,58,0.00,,,0.00,VWS V14.01,2013-02-17 07:18:00,
2013-02-17 02:23:00,24.7,11.6,29.68,NNW,327,1.0,9.0,57,0.00,,,0.00,VWS V14.01,2013-02-17 07:23:00,
2013-02-17 02:28:00,24.6,11.2,29.68,NW,317,1.0,9.0,56,0.00,,,0.00,VWS V14.01,2013-02-17 07:28:00,
2013-02-17 02:33:00,24.6,11.2,29.69,NNE,23,4.0,4.0,56,0.00,,,0.00,VWS V14.01,2013-02-17 07:33:00,
2013-02-17 02:38:00,24.6,10.3,29.69,WNW,289,0.0,5.0,54,0.00,,,0.00,VWS V14.01,2013-02-17 07:38:00,
2013-02-17 02:43:00,24.6,9.9,29.69,West,276,0.0,7.0,53,0.00,,,0.00,VWS V14.01,2013-02-17 07:43:00,
2013-02-17 02:48:00,24.6,10.3,29.69,NW,320,2.0,7.0,54,0.00,,,0.00,VWS V14.01,2013-02-17 07:48:00,
2013-02-17 02:53:00,24.6,9.5,29.69,NNW,332,2.0,7.0,52,0.00,,,0.00,VWS V14.01,2013-02-17 07:53:00,
2013-02-17 02:58:00,24.6,9.5,29.69,WNW,288,1.0,7.0,52,0.00,,,0.00,VWS V14.01,2013-02-17 07:58:00,
2013-02-17 03:04:00,24.5,9.0,29.69,NNW,348,0.0,5.0,51,0.00,,,0.00,VWS V14.01,2013-02-17 08:04:00,
2013-02-17 03:09:00,24.4,8.9,29.68,NNE,15,0.0,7.0,51,0.00,,,0.00,VWS V14.01,2013-02-17 08:09:00,
2013-02-17 03:14:00,24.3,9.2,29.67,NW,319,0.0,7.0,52,0.00,,,0.00,VWS V14.01,2013-02-17 08:14:00,
2013-02-17 03:19:00,24.2,10.0,29.67,NNW,344,0.0,7.0,54,0.00,,,0.00,VWS V14.01,2013-02-17 08:19:00,
2013-02-17 03:24:00,24.1,9.9,29.67,North,349,2.0,7.0,54,0.00,,,0.00,VWS V14.01,2013-02-17 08:24:00,
2013-02-17 03:29:00,23.9,9.7,29.67,WSW,254,0.0,7.0,54,0.00,,,0.00,VWS V14.01,2013-02-17 08:29:00,
2013-02-17 03:34:00,23.7,9.5,29.67,ESE,104,0.0,5.0,54,0.00,,,0.00,VWS V14.01,2013-02-17 08:34:00,
2013-02-17 03:39:00,23.6,10.2,29.67,NNW,328,1.0,5.0,56,0.00,,,0.00,VWS V14.01,2013-02-17 08:39:00,
2013-02-17 03:44:00,23.4,10.0,29.67,NNE,20,0.0,6.0,56,0.00,,,0.00,VWS V14.01,2013-02-17 08:44:00,
2013-02-17 03:49:00,23.2,10.2,29.67,West,279,1.0,6.0,57,0.00,,,0.00,VWS V14.01,2013-02-17 08:49:00,
2013-02-17 03:54:00,23.0,9.7,29.67,SSW,208,2.0,11.0,56,0.00,,,0.00,VWS V14.01,2013-02-17 08:54:00,
2013-02-17 03:59:00,22.9,10.0,29.67,NNW,346,5.0,11.0,57,0.00,,,0.00,VWS V14.01,2013-02-17 08:59:00,
2013-02-17 04:04:00,22.7,10.2,29.67,West,280,0.0,5.0,58,0.00,,,0.00,VWS V14.01,2013-02-17 09:04:00,
2013-02-17 04:09:00,22.6,10.1,29.67,NNW,347,2.0,5.0,58,0.00,,,0.00,VWS V14.01,2013-02-17 09:09:00,
2013-02-17 04:15:00,22.5,10.0,29.67,North,351,3.0,11.0,58,0.00,,,0.00,VWS V14.01,2013-02-17 09:15:00,
2013-02-17 04:20:00,22.4,9.9,29.67,NW,318,0.0,11.0,58,0.00,,,0.00,VWS V14.01,2013-02-17 09:20:00,
2013-02-17 04:25:00,22.3,9.4,29.67,East,96,2.0,11.0,57,0.00,,,0.00,VWS V14.01,2013-02-17 09:25:00,
2013-02-17 04:30:00,22.2,9.7,29.67,North,5,3.0,11.0,58,0.00,,,0.00,VWS V14.01,2013-02-17 09:30:00,
2013-02-17 04:35:00,22.1,10.0,29.67,NNW,336,2.0,7.0,59,0.00,,,0.00,VWS V14.01,2013-02-17 09:35:00,
2013-02-17 04:40:00,22.0,9.5,29.67,NNE,32,0.0,7.0,58,0.00,,,0.00,VWS V14.01,2013-02-17 09:40:00,
2013-02-17 04:45:00,21.9,9.4,29.67,East,88,1.0,7.0,58,0.00,,,0.00,VWS V14.01,2013-02-17 09:45:00,
2013-02-17 04:50:00,21.8,10.1,29.66,NNW,340,2.0,7.0,60,0.00,,,0.00,VWS V14.01,2013-02-17 09:50:00,
2013-02-17 04:56:00,21.7,9.2,29.66,SW,223,2.0,7.0,58,0.00,,,0.00,VWS V14.01,2013-02-17 09:56:00,
2013-02-17 05:01:00,21.6,8.7,29.66,NNW,344,2.0,7.0,57,0.00,,,0.00,VWS V14.01,2013-02-17 10:01:00,
2013-02-17 05:06:00,21.5,8.6,29.66,NNW,332,3.0,8.0,57,0.00,,,0.00,VWS V14.01,2013-02-17 10:06:00,
2013-02-17 05:11:00,21.4,8.6,29.65,NE,40,2.0,8.0,57,0.00,,,0.00,VWS V14.01,2013-02-17 10:11:00,
2013-02-17 05:16:00,21.4,8.9,29.65,WSW,254,2.0,8.0,58,0.00,,,0.00,VWS V14.01,2013-02-17 10:16:00,
2013-02-17 05:21:00,21.3,8.8,29.65,North,11,1.0,8.0,58,0.00,,,0.00,VWS V14.01,2013-02-17 10:21:00,
2013-02-17 05:26:00,21.2,9.1,29.65,North,355,4.0,8.0,59,0.00,,,0.00,VWS V14.01,2013-02-17 10:26:00,
2013-02-17 05:31:00,21.2,8.4,29.65,NNW,344,6.0,6.0,57,0.00,,,0.00,VWS V14.01,2013-02-17 10:31:00,
2013-02-17 05:36:00,21.1,8.3,29.65,NNW,336,2.0,8.0,57,0.00,,,0.00,VWS V14.01,2013-02-17 10:36:00,
2013-02-17 05:41:00,21.1,8.3,29.65,ENE,73,5.0,10.0,57,0.00,,,0.00,VWS V14.01,2013-02-17 10:41:00,
2013-02-17 05:46:00,21.0,8.2,29.65,SW,229,2.0,10.0,57,0.00,,,0.00,VWS V14.01,2013-02-17 10:46:00,
2013-02-17 05:51:00,21.0,7.8,29.64,West,276,4.0,10.0,56,0.00,,,0.00,VWS V14.01,2013-02-17 10:51:00,
2013-02-17 05:56:00,20.9,7.7,29.64,NW,325,4.0,10.0,56,0.00,,,0.00,VWS V14.01,2013-02-17 10:56:00,
2013-02-17 06:01:00,20.9,8.1,29.64,East,86,1.0,1.0,57,0.00,,,0.00,VWS V14.01,2013-02-17 11:01:00,
2013-02-17 06:06:00,20.8,8.4,29.63,WNW,294,2.0,9.0,58,0.00,,,0.00,VWS V14.01,2013-02-17 11:06:00,
2013-02-17 06:11:00,20.8,8.0,29.63,WNW,290,1.0,10.0,57,0.00,,,0.00,VWS V14.01,2013-02-17 11:11:00,
2013-02-17 06:16:00,20.8,8.8,29.64,NNW,336,1.0,10.0,59,0.00,,,0.00,VWS V14.01,2013-02-17 11:16:00,
2013-02-17 06:22:00,20.7,9.0,29.65,NW,307,2.0,10.0,60,0.00,,,0.00,VWS V14.01,2013-02-17 11:22:00,
2013-02-17 06:27:00,20.7,8.3,29.64,SE,127,4.0,10.0,58,0.00,,,0.00,VWS V14.01,2013-02-17 11:27:00,
2013-02-17 06:32:00,20.6,8.9,29.64,NNW,329,2.0,4.0,60,0.00,,,0.00,VWS V14.01,2013-02-17 11:32:00,
2013-02-17 06:37:00,20.6,8.9,29.64,NW,311,2.0,5.0,60,0.00,,,0.00,VWS V14.01,2013-02-17 11:37:00,
2013-02-17 06:42:00,20.5,8.5,29.64,NW,310,2.0,8.0,59,0.00,,,0.00,VWS V14.01,2013-02-17 11:42:00,
2013-02-17 06:47:00,20.5,9.2,29.64,East,98,0.0,8.0,61,0.00,,,0.00,VWS V14.01,2013-02-17 11:47:00,
2013-02-17 06:52:00,20.4,8.7,29.63,North,349,3.0,8.0,60,0.00,,,0.00,VWS V14.01,2013-02-17 11:52:00,
2013-02-17 06:57:00,20.4,8.7,29.62,NNE,21,1.0,8.0,60,0.00,,,0.00,VWS V14.01,2013-02-17 11:57:00,
2013-02-17 07:02:00,20.3,8.6,29.62,SW,217,0.0,5.0,60,0.00,,,0.00,VWS V14.01,2013-02-17 12:02:00,
2013-02-17 07:08:00,20.3,9.4,29.63,NNE,28,4.0,7.0,62,0.00,,,0.00,VWS V14.01,2013-02-17 12:08:00,
2013-02-17 07:13:00,20.2,8.6,29.62,NNW,337,1.0,12.0,60,0.00,,,0.00,VWS V14.01,2013-02-17 12:13:00,
2013-02-17 07:18:00,20.2,8.2,29.63,NNW,330,1.0,12.0,59,0.00,,,0.00,VWS V14.01,2013-02-17 12:18:00,
2013-02-17 07:23:00,20.1,8.5,29.63,WNW,289,5.0,12.0,60,0.00,,,0.00,VWS V14.01,2013-02-17 12:23:00,
2013-02-17 07:28:00,20.1,8.5,29.63,NE,49,2.0,12.0,60,0.00,,,0.00,VWS V14.01,2013-02-17 12:28:00,
2013-02-17 07:33:00,20.1,8.8,29.63,NW,315,0.0,2.0,61,0.00,,,0.00,VWS V14.01,2013-02-17 12:33:00,
2013-02-17 07:38:00,20.1,8.8,29.63,North,355,4.0,5.0,61,0.00,,,0.00,VWS V14.01,2013-02-17 12:38:00,
2013-02-17 07:43:00,20.0,8.7,29.63,North,5,1.0,7.0,61,0.00,,,0.00,VWS V14.01,2013-02-17 12:43:00,
2013-02-17 07:48:00,20.0,9.1,29.64,NNW,338,0.0,7.0,62,0.00,,,0.00,VWS V14.01,2013-02-17 12:48:00,
2013-02-17 07:53:00,20.1,8.8,29.64,WNW,291,1.0,7.0,61,0.00,,,0.00,VWS V14.01,2013-02-17 12:53:00,
2013-02-17 07:58:00,20.1,8.5,29.64,NW,319,0.0,8.0,60,0.00,,,0.00,VWS V14.01,2013-02-17 12:58:00,
2013-02-17 08:03:00,20.1,8.5,29.63,NNE,24,2.0,4.0,60,0.00,,,0.00,VWS V14.01,2013-02-17 13:03:00,
2013-02-17 08:08:00,20.2,8.6,29.63,NNW,337,5.0,5.0,60,0.00,,,0.00,VWS V14.01,2013-02-17 13:08:00,
2013-02-17 08:13:00,20.2,8.6,29.63,SSE,160,0.0,6.0,60,0.00,,,0.00,VWS V14.01,2013-02-17 13:13:00,
2013-02-17 08:18:00,20.2,8.2,29.63,WNW,285,7.0,15.0,59,0.00,,,0.00,VWS V14.01,2013-02-17 13:18:00,
2013-02-17 08:23:00,20.2,7.8,29.63,NNE,29,1.0,15.0,58,0.00,,,0.00,VWS V14.01,2013-02-17 13:23:00,
2013-02-17 08:29:00,20.3,7.9,29.63,NNE,21,0.0,15.0,58,0.00,,,0.00,VWS V14.01,2013-02-17 13:29:00,
2013-02-17 08:34:00,20.3,8.3,29.63,WSW,250,1.0,3.0,59,0.00,,,0.00,VWS V14.01,2013-02-17 13:34:00,
2013-02-17 08:39:00,20.5,8.5,29.63,NNW,340,2.0,4.0,59,0.00,,,0.00,VWS V14.01,2013-02-17 13:39:00,
2013-02-17 08:44:00,20.6,8.2,29.63,SSW,213,0.0,5.0,58,0.00,,,0.00,VWS V14.01,2013-02-17 13:44:00,
2013-02-17 08:49:00,20.6,7.8,29.62,ENE,57,5.0,7.0,57,0.00,,,0.00,VWS V14.01,2013-02-17 13:49:00,
2013-02-17 08:54:00,20.6,7.8,29.62,ENE,67,2.0,7.0,57,0.00,,,0.00,VWS V14.01,2013-02-17 13:54:00,
2013-02-17 08:59:00,20.7,8.3,29.62,East,97,2.0,7.0,58,0.00,,,0.00,VWS V14.01,2013-02-17 13:59:00,
2013-02-17 09:04:00,20.8,8.0,29.62,WNW,298,0.0,4.0,57,0.00,,,0.00,VWS V14.01,2013-02-17 14:04:00,
2013-02-17 09:09:00,20.9,8.5,29.61,North,351,2.0,8.0,58,0.00,,,0.00,VWS V14.01,2013-02-17 14:09:00,
2013-02-17 09:14:00,20.9,8.5,29.61,ENE,65,0.0,8.0,58,0.00,,,0.00,VWS V14.01,2013-02-17 14:14:00,
2013-02-17 09:19:00,21.1,8.6,29.61,NW,305,0.0,8.0,58,0.00,,,0.00,VWS V14.01,2013-02-17 14:19:00,
2013-02-17 09:24:00,21.2,9.1,29.61,NE,34,2.0,8.0,59,0.00,,,0.00,VWS V14.01,2013-02-17 14:24:00,
2013-02-17 09:29:00,21.3,8.1,29.61,NE,39,0.0,8.0,56,0.00,,,0.00,VWS V14.01,2013-02-17 14:29:00,
2013-02-17 09:35:00,21.4,8.9,29.60,North,355,1.0,9.0,58,0.00,,,0.00,VWS V14.01,2013-02-17 14:35:00,
2013-02-17 09:40:00,21.5,8.2,29.60,NNW,331,0.0,9.0,56,0.00,,,0.00,VWS V14.01,2013-02-17 14:40:00,
2013-02-17 09:45:00,21.7,8.0,29.59,SE,143,2.0,9.0,55,0.00,,,0.00,VWS V14.01,2013-02-17 14:45:00,
2013-02-17 09:50:00,22.0,7.9,29.60,NNW,343,4.0,9.0,54,0.00,,,0.00,VWS V14.01,2013-02-17 14:50:00,
2013-02-17 09:55:00,22.2,8.1,29.60,ENE,67,3.0,9.0,54,0.00,,,0.00,VWS V14.01,2013-02-17 14:55:00,
2013-02-17 10:00:00,22.0,7.5,29.60,North,355,4.0,10.0,53,0.00,,,0.00,VWS V14.01,2013-02-17 15:00:00,
2013-02-17 10:05:00,21.9,7.0,29.60,East,93,0.0,7.0,52,0.00,,,0.00,VWS V14.01,2013-02-17 15:05:00,
2013-02-17 10:10:00,22.2,8.1,29.60,NE,38,0.0,7.0,54,0.00,,,0.00,VWS V14.01,2013-02-17 15:10:00,
2013-02-17 10:15:00,22.4,7.4,29.61,SSE,161,1.0,7.0,52,0.00,,,0.00,VWS V14.01,2013-02-17 15:15:00,
2013-02-17 10:20:00,22.3,6.9,29.60,NE,53,0.0,7.0,51,0.00,,,0.00,VWS V14.01,2013-02-17 15:20:00,
2013-02-17 10:25:00,22.5,7.1,29.61,SSW,212,1.0,7.0,51,0.00,,,0.00,VWS V14.01,2013-02-17 15:25:00,
2013-02-17 10:30:00,22.7,7.7,29.61,SW,232,6.0,7.0,52,0.00,,,0.00,VWS V14.01,2013-02-17 15:30:00,
2013-02-17 10:35:00,22.8,7.4,29.61,NNE,15,8.0,9.0,51,0.00,,,0.00,VWS V14.01,2013-02-17 15:35:00,
2013-02-17 10:40:00,22.5,6.2,29.61,NW,309,0.0,9.0,49,0.00,,,0.00,VWS V14.01,2013-02-17 15:40:00,
2013-02-17 10:45:00,22.6,5.4,29.61,NNW,329,1.0,10.0,47,0.00,,,0.00,VWS V14.01,2013-02-17 15:45:00,
2013-02-17 10:50:00,23.1,6.3,29.61,SE,138,0.0,10.0,48,0.00,,,0.00,VWS V14.01,2013-02-17 15:50:00,
2013-02-17 10:56:00,23.5,6.2,29.62,WSW,238,0.0,10.0,47,0.00,,,0.00,VWS V14.01,2013-02-17 15:56:00,
2013-02-17 11:01:00,23.4,6.2,29.62,South,186,3.0,3.0,47,0.00,,,0.00,VWS V14.01,2013-02-17 16:01:00,
2013-02-17 11:06:00,23.6,5.4,29.62,ESE,123,0.0,8.0,45,0.00,,,0.00,VWS V14.01,2013-02-17 16:06:00,
2013-02-17 11:11:00,23.9,6.1,29.62,East,99,1.0,8.0,46,0.00,,,0.00,VWS V14.01,2013-02-17 16:11:00,
2013-02-17 11:16:00,23.9,5.2,29.62,SE,142,0.0,10.0,44,0.00,,,0.00,VWS V14.01,2013-02-17 16:16:00,
2013-02-17 11:21:00,23.9,5.7,29.62,ENE,76,3.0,12.0,45,0.00,,,0.00,VWS V14.01,2013-02-17 16:21:00,
2013-02-17 11:26:00,24.2,5.4,29.62,East,88,4.0,12.0,44,0.00,,,0.00,VWS V14.01,2013-02-17 16:26:00,
2013-02-17 11:31:00,23.7,5.0,29.63,WSW,256,3.0,9.0,44,0.00,,,0.00,VWS V14.01,2013-02-17 16:31:00,
2013-02-17 11:36:00,23.9,5.7,29.63,West,274,2.0,9.0,45,0.00,,,0.00,VWS V14.01,2013-02-17 16:36:00,
2013-02-17 11:41:00,24.2,5.9,29.63,ENE,63,1.0,9.0,45,0.00,,,0.00,VWS V14.01,2013-02-17 16:41:00,
2013-02-17 11:46:00,24.7,6.4,29.62,ENE,77,5.0,9.0,45,0.00,,,0.00,VWS V14.01,2013-02-17 16:46:00,
2013-02-17 11:51:00,24.9,7.1,29.62,ENE,73,3.0,9.0,46,0.00,,,0.00,VWS V14.01,2013-02-17 16:51:00,
2013-02-17 11:56:00,24.9,7.1,29.62,NNW,327,1.0,9.0,46,0.00,,,0.00,VWS V14.01,2013-02-17 16:56:00,
2013-02-17 12:02:00,25.4,7.0,29.62,WSW,242,1.0,4.0,45,0.00,,,0.00,VWS V14.01,2013-02-17 17:02:00,
2013-02-17 12:07:00,25.6,6.2,29.62,SSE,162,1.0,9.0,43,0.00,,,0.00,VWS V14.01,2013-02-17 17:07:00,
2013-02-17 12:12:00,25.8,7.4,29.62,North,355,0.0,9.0,45,0.00,,,0.00,VWS V14.01,2013-02-17 17:12:00,
2013-02-17 12:17:00,26.3,7.9,29.62,SSW,196,0.0,9.0,45,0.00,,,0.00,VWS V14.01,2013-02-17 17:17:00,
2013-02-17 12:22:00,26.5,7.6,29.62,South,175,0.0,9.0,44,0.00,,,0.00,VWS V14.01,2013-02-17 17:22:00,
2013-02-17 12:27:00,26.6,7.6,29.62,SE,140,4.0,9.0,44,0.00,,,0.00,VWS V14.01,2013-02-17 17:27:00,
2013-02-17 12:32:00,26.5,6.0,29.62,NNW,342,6.0,7.0,41,0.00,,,0.00,VWS V14.01,2013-02-17 17:32:00,
2013-02-17 12:37:00,26.3,4.2,29.62,West,275,5.0,10.0,38,0.00,,,0.00,VWS V14.01,2013-02-17 17:37:00,
2013-02-17 12:42:00,26.3,6.3,29.62,NNE,30,1.0,10.0,42,0.00,,,0.00,VWS V14.01,2013-02-17 17:42:00,
2013-02-17 12:47:00,26.7,5.1,29.62,NE,46,1.0,10.0,39,0.00,,,0.00,VWS V14.01,2013-02-17 17:47:00,
2013-02-17 12:52:00,27.0,5.9,29.62,South,183,1.0,10.0,40,0.00,,,0.00,VWS V14.01,2013-02-17 17:52:00,
2013-02-17 12:57:00,27.6,5.9,29.62,NNE,25,0.0,10.0,39,0.00,,,0.00,VWS V14.01,2013-02-17 17:57:00,
2013-02-17 13:02:00,27.8,6.6,29.62,South,187,6.0,7.0,40,0.00,,,0.00,VWS V14.01,2013-02-17 18:02:00,
2013-02-17 13:07:00,27.1,4.9,29.62,East,86,4.0,17.0,38,0.00,,,0.00,VWS V14.01,2013-02-17 18:07:00,
2013-02-17 13:13:00,26.8,5.7,29.62,West,259,1.0,17.0,40,0.00,,,0.00,VWS V14.01,2013-02-17 18:13:00,
2013-02-17 13:18:00,26.6,4.4,29.62,NW,321,5.0,17.0,38,0.00,,,0.00,VWS V14.01,2013-02-17 18:18:00,
2013-02-17 13:23:00,27.0,4.2,29.62,NE,34,2.0,17.0,37,0.00,,,0.00,VWS V14.01,2013-02-17 18:23:00,
2013-02-17 13:28:00,27.6,5.9,29.62,ESE,110,4.0,17.0,39,0.00,,,0.00,VWS V14.01,2013-02-17 18:28:00,
2013-02-17 13:33:00,28.3,6.0,29.62,North,9,1.0,6.0,38,0.00,,,0.00,VWS V14.01,2013-02-17 18:33:00,
2013-02-17 13:38:00,28.8,5.8,29.62,North,351,3.0,10.0,37,0.00,,,0.00,VWS V14.01,2013-02-17 18:38:00,
2013-02-17 13:43:00,28.9,7.1,29.62,ENE,67,2.0,10.0,39,0.00,,,0.00,VWS V14.01,2013-02-17 18:43:00,
2013-02-17 13:48:00,28.9,7.6,29.63,NNW,342,4.0,10.0,40,0.00,,,0.00,VWS V14.01,2013-02-17 18:48:00,
2013-02-17 13:53:00,29.3,6.9,29.63,ENE,59,0.0,10.0,38,0.00,,,0.00,VWS V14.01,2013-02-17 18:53:00,
2013-02-17 13:58:00,29.7,7.2,29.63,NE,51,0.0,10.0,38,0.00,,,0.00,VWS V14.01,2013-02-17 18:58:00,
2013-02-17 14:03:00,29.6,5.9,29.64,West,261,3.0,6.0,36,0.00,,,0.00,VWS V14.01,2013-02-17 19:03:00,
2013-02-17 14:08:00,29.0,6.6,29.63,NE,42,3.0,8.0,38,0.00,,,0.00,VWS V14.01,2013-02-17 19:08:00,
2013-02-17 14:13:00,28.7,5.1,29.63,SSE,167,1.0,10.0,36,0.00,,,0.00,VWS V14.01,2013-02-17 19:13:00,
2013-02-17 14:18:00,29.2,6.2,29.64,NNW,347,8.0,11.0,37,0.00,,,0.00,VWS V14.01,2013-02-17 19:18:00,
2013-02-17 14:24:00,28.9,5.9,29.64,ENE,70,0.0,13.0,37,0.00,,,0.00,VWS V14.01,2013-02-17 19:24:00,
2013-02-17 14:29:00,29.5,5.8,29.63,ENE,65,2.0,13.0,36,0.00,,,0.00,VWS V14.01,2013-02-17 19:29:00,
2013-02-17 14:34:00,29.5,4.6,29.64,East,79,0.0,4.0,34,0.00,,,0.00,VWS V14.01,2013-02-17 19:34:00,
2013-02-17 14:39:00,28.9,3.4,29.65,NE,51,2.0,12.0,33,0.00,,,0.00,VWS V14.01,2013-02-17 19:39:00,
2013-02-17 14:44:00,28.4,3.6,29.64,NE,49,4.0,12.0,34,0.00,,,0.00,VWS V14.01,2013-02-17 19:44:00,
2013-02-17 14:49:00,28.1,3.4,29.64,East,97,6.0,12.0,34,0.00,,,0.00,VWS V14.01,2013-02-17 19:49:00,
2013-02-17 14:54:00,27.9,3.2,29.64,North,11,3.0,12.0,34,0.00,,,0.00,VWS V14.01,2013-02-17 19:54:00,
2013-02-17 14:59:00,27.9,3.8,29.63,SE,140,4.0,12.0,35,0.00,,,0.00,VWS V14.01,2013-02-17 19:59:00,
2013-02-17 15:04:00,27.6,2.3,29.64,ENE,74,3.0,12.0,33,0.00,,,0.00,VWS V14.01,2013-02-17 20:04:00,
2013-02-17 15:09:00,27.3,1.4,29.65,NNW,348,9.0,15.0,32,0.00,,,0.00,VWS V14.01,2013-02-17 20:09:00,
2013-02-17 15:14:00,27.5,4.1,29.65,NNW,336,10.0,15.0,36,0.00,,,0.00,VWS V14.01,2013-02-17 20:14:00,
2013-02-17 15:19:00,27.6,3.5,29.66,South,188,4.0,15.0,35,0.00,,,0.00,VWS V14.01,2013-02-17 20:19:00,
2013-02-17 15:24:00,27.4,2.1,29.66,NNW,340,1.0,15.0,33,0.00,,,0.00,VWS V14.01,2013-02-17 20:24:00,
2013-02-17 15:29:00,27.5,2.8,29.65,SSE,152,4.0,15.0,34,0.00,,,0.00,VWS V14.01,2013-02-17 20:29:00,
2013-02-17 15:34:00,27.5,2.8,29.65,North,11,1.0,10.0,34,0.00,,,0.00,VWS V14.01,2013-02-17 20:34:00,
2013-02-17 15:39:00,27.6,1.6,29.65,SE,132,2.0,10.0,32,0.00,,,0.00,VWS V14.01,2013-02-17 20:39:00,
2013-02-17 15:44:00,27.5,2.8,29.65,WNW,302,0.0,10.0,34,0.00,,,0.00,VWS V14.01,2013-02-17 20:44:00,
2013-02-17 15:49:00,27.5,4.7,29.66,SSW,201,4.0,10.0,37,0.00,,,0.00,VWS V14.01,2013-02-17 20:49:00,
2013-02-17 15:54:00,27.1,3.1,29.66,East,81,4.0,11.0,35,0.00,,,0.00,VWS V14.01,2013-02-17 20:54:00,
2013-02-17 15:59:00,26.9,2.9,29.66,NNW,344,1.0,11.0,35,0.00,,,0.00,VWS V14.01,2013-02-17 20:59:00,
2013-02-17 16:05:00,26.7,2.7,29.66,ENE,75,1.0,6.0,35,0.00,,,0.00,VWS V14.01,2013-02-17 21:05:00,
2013-02-17 16:10:00,26.6,4.4,29.67,ESE,108,1.0,8.0,38,0.00,,,0.00,VWS V14.01,2013-02-17 21:10:00,
2013-02-17 16:15:00,26.5,4.3,29.67,SSE,148,4.0,8.0,38,0.00,,,0.00,VWS V14.01,2013-02-17 21:15:00,
2013-02-17 16:20:00,26.3,4.2,29.67,WNW,288,2.0,8.0,38,0.00,,,0.00,VWS V14.01,2013-02-17 21:20:00,
2013-02-17 16:25:00,26.1,4.0,29.67,SSE,155,1.0,10.0,38,0.00,,,0.00,VWS V14.01,2013-02-17 21:25:00,
2013-02-17 16:30:00,25.9,4.9,29.68,SSE,159,4.0,11.0,40,0.00,,,0.00,VWS V14.01,2013-02-17 21:30:00,
2013-02-17 16:35:00,25.6,5.7,29.68,NE,42,1.0,5.0,42,0.00,,,0.00,VWS V14.01,2013-02-17 21:35:00,
2013-02-17 16:40:00,25.3,4.9,29.68,South,183,2.0,12.0,41,0.00,,,0.00,VWS V14.01,2013-02-17 21:40:00,
2013-02-17 16:45:00,25.2,6.8,29.69,East,82,3.0,12.0,45,0.00,,,0.00,VWS V14.01,2013-02-17 21:45:00,
2013-02-17 16:50:00,24.9,6.1,29.69,SE,137,2.0,12.0,44,0.00,,,0.00,VWS V14.01,2013-02-17 21:50:00,
2013-02-17 16:55:00,24.6,6.3,29.69,South,169,2.0,12.0,45,0.00,,,0.00,VWS V14.01,2013-02-17 21:55:00,
2013-02-17 17:00:00,24.3,5.5,29.70,North,360,2.0,12.0,44,0.00,,,0.00,VWS V14.01,2013-02-17 22:00:00,
2013-02-17 17:05:00,24.0,5.3,29.70,SSE,167,5.0,12.0,44,0.00,,,0.00,VWS V14.01,2013-02-17 22:05:00,
2013-02-17 17:10:00,23.8,6.1,29.70,SSE,159,10.0,12.0,46,0.00,,,0.00,VWS V14.01,2013-02-17 22:10:00,
2013-02-17 17:15:00,23.5,4.8,29.71,SSW,198,2.0,17.0,44,0.00,,,0.00,VWS V14.01,2013-02-17 22:15:00,
2013-02-17 17:21:00,23.2,5.0,29.71,SE,146,2.0,17.0,45,0.00,,,0.00,VWS V14.01,2013-02-17 22:21:00,
2013-02-17 17:26:00,23.0,4.8,29.71,South,174,8.0,17.0,45,0.00,,,0.00,VWS V14.01,2013-02-17 22:26:00,
2013-02-17 17:31:00,22.7,5.0,29.72,East,101,2.0,3.0,46,0.00,,,0.00,VWS V14.01,2013-02-17 22:31:00,
2013-02-17 17:36:00,22.5,4.4,29.72,SE,146,5.0,9.0,45,0.00,,,0.00,VWS V14.01,2013-02-17 22:36:00,
2013-02-17 17:41:00,22.3,4.7,29.73,East,96,5.0,9.0,46,0.00,,,0.00,VWS V14.01,2013-02-17 22:41:00,
2013-02-17 17:46:00,22.1,5.0,29.73,East,94,1.0,9.0,47,0.00,,,0.00,VWS V14.01,2013-02-17 22:46:00,
2013-02-17 17:51:00,21.8,4.2,29.74,NNW,346,4.0,9.0,46,0.00,,,0.00,VWS V14.01,2013-02-17 22:51:00,
2013-02-17 17:56:00,21.5,4.9,29.74,SE,144,0.0,9.0,48,0.00,,,0.00,VWS V14.01,2013-02-17 22:56:00,
2013-02-17 18:01:00,21.3,3.8,29.74,SE,138,2.0,4.0,46,0.00,,,0.00,VWS V14.01,2013-02-17 23:01:00,
2013-02-17 18:06:00,21.0,3.9,29.75,ENE,70,4.0,7.0,47,0.00,,,0.00,VWS V14.01,2013-02-17 23:06:00,
2013-02-17 18:11:00,20.8,4.7,29.75,East,83,0.0,7.0,49,0.00,,,0.00,VWS V14.01,2013-02-17 23:11:00,
2013-02-17 18:17:00,20.6,4.0,29.75,East,94,1.0,7.0,48,0.00,,,0.00,VWS V14.01,2013-02-17 23:17:00,
2013-02-17 18:22:00,20.4,4.7,29.76,SSE,157,2.0,7.0,50,0.00,,,0.00,VWS V14.01,2013-02-17 23:22:00,
2013-02-17 18:27:00,20.2,4.1,29.76,South,178,2.0,7.0,49,0.00,,,0.00,VWS V14.01,2013-02-17 23:27:00,
2013-02-17 18:32:00,20.2,4.1,29.77,South,175,0.0,1.0,49,0.00,,,0.00,VWS V14.01,2013-02-17 23:32:00,
2013-02-17 18:37:00,20.0,4.4,29.77,NW,316,3.0,4.0,50,0.00,,,0.00,VWS V14.01,2013-02-17 23:37:00,
2013-02-17 18:42:00,19.9,3.4,29.78,NNE,32,6.0,6.0,48,0.00,,,0.00,VWS V14.01,2013-02-17 23:42:00,
2013-02-17 18:47:00,19.9,2.9,29.78,ESE,108,4.0,6.0,47,0.00,,,0.00,VWS V14.01,2013-02-17 23:47:00,
2013-02-17 18:52:00,19.7,3.7,29.78,South,191,0.0,8.0,49,0.00,,,0.00,VWS V14.01,2013-02-17 23:52:00,
2013-02-17 18:57:00,19.5,2.6,29.79,ENE,74,0.0,8.0,47,0.00,,,0.00,VWS V14.01,2013-02-17 23:57:00,
2013-02-17 19:02:00,19.4,2.9,29.79,ENE,74,1.0,1.0,48,0.00,,,0.00,VWS V14.01,2013-02-18 00:02:00,
2013-02-17 19:07:00,19.2,3.2,29.80,NE,44,6.0,10.0,49,0.00,,,0.00,VWS V14.01,2013-02-18 00:07:00,
2013-02-17 19:12:00,19.1,3.1,29.79,South,184,2.0,10.0,49,0.00,,,0.00,VWS V14.01,2013-02-18 00:12:00,
2013-02-17 19:17:00,18.8,2.8,29.80,NW,325,3.0,10.0,49,0.00,,,0.00,VWS V14.01,2013-02-18 00:17:00,
2013-02-17 19:22:00,18.6,3.5,29.80,North,10,2.0,10.0,51,0.00,,,0.00,VWS V14.01,2013-02-18 00:22:00,
2013-02-17 19:27:00,18.4,2.9,29.80,ESE,117,4.0,10.0,50,0.00,,,0.00,VWS V14.01,2013-02-18 00:27:00,
2013-02-17 19:33:00,18.3,2.3,29.80,WNW,298,1.0,6.0,49,0.00,,,0.00,VWS V14.01,2013-02-18 00:33:00,
2013-02-17 19:38:00,18.1,2.2,29.81,North,350,7.0,10.0,49,0.00,,,0.00,VWS V14.01,2013-02-18 00:38:00,
2013-02-17 19:43:00,18.0,2.5,29.81,South,184,3.0,11.0,50,0.00,,,0.00,VWS V14.01,2013-02-18 00:43:00,
2013-02-17 19:48:00,17.9,3.3,29.81,SSE,147,0.0,11.0,52,0.00,,,0.00,VWS V14.01,2013-02-18 00:48:00,
2013-02-17 19:53:00,17.7,2.2,29.81,East,98,2.0,11.0,50,0.00,,,0.00,VWS V14.01,2013-02-18 00:53:00,
2013-02-17 19:58:00,17.6,2.6,29.81,NNW,338,0.0,11.0,51,0.00,,,0.00,VWS V14.01,2013-02-18 00:58:00,
2013-02-17 20:03:00,17.5,2.5,29.81,NW,309,12.0,12.0,51,0.00,,,0.00,VWS V14.01,2013-02-18 01:03:00,
2013-02-17 20:08:00,17.4,2.4,29.81,North,5,10.0,13.0,51,0.00,,,0.00,VWS V14.01,2013-02-18 01:08:00,
2013-02-17 20:13:00,17.2,3.0,29.81,North,5,2.0,13.0,53,0.00,,,0.00,VWS V14.01,2013-02-18 01:13:00,
2013-02-17 20:18:00,17.1,2.9,29.82,SSE,157,2.0,13.0,53,0.00,,,0.00,VWS V14.01,2013-02-18 01:18:00,
2013-02-17 20:23:00,17.0,3.2,29.82,NNE,31,1.0,13.0,54,0.00,,,0.00,VWS V14.01,2013-02-18 01:23:00,
2013-02-17 20:29:00,16.8,3.0,29.82,NNE,22,4.0,13.0,54,0.00,,,0.00,VWS V14.01,2013-02-18 01:29:00,
2013-02-17 20:34:00,16.7,2.5,29.83,NW,326,0.0,9.0,53,0.00,,,0.00,VWS V14.01,2013-02-18 01:34:00,
2013-02-17 20:39:00,16.7,3.0,29.83,ESE,121,4.0,9.0,54,0.00,,,0.00,VWS V14.01,2013-02-18 01:39:00,
2013-02-17 20:44:00,16.5,2.8,29.83,SE,146,1.0,9.0,54,0.00,,,0.00,VWS V14.01,2013-02-18 01:44:00,
2013-02-17 20:49:00,16.4,3.1,29.83,NNE,13,5.0,9.0,55,0.00,,,0.00,VWS V14.01,2013-02-18 01:49:00,
2013-02-17 20:54:00,16.3,3.0,29.84,NNW,345,3.0,11.0,55,0.00,,,0.00,VWS V14.01,2013-02-18 01:54:00,
2013-02-17 20:59:00,16.2,2.9,29.84,South,175,0.0,11.0,55,0.00,,,0.00,VWS V14.01,2013-02-18 01:59:00,
2013-02-17 21:04:00,16.1,2.8,29.84,North,5,2.0,7.0,55,0.00,,,0.00,VWS V14.01,2013-02-18 02:04:00,
2013-02-17 21:09:00,16.0,2.3,29.84,NNW,336,4.0,7.0,54,0.00,,,0.00,VWS V14.01,2013-02-18 02:09:00,
2013-02-17 21:14:00,15.9,4.8,29.84,ENE,57,0.0,11.0,61,0.00,,,0.00,VWS V14.01,2013-02-18 02:14:00,
2013-02-17 21:19:00,15.7,2.8,29.85,NNE,12,0.0,11.0,56,0.00,,,0.00,VWS V14.01,2013-02-18 02:19:00,
2013-02-17 21:24:00,15.6,3.1,29.85,SE,144,2.0,11.0,57,0.00,,,0.00,VWS V14.01,2013-02-18 02:24:00,
2013-02-17 21:29:00,15.5,3.0,29.85,ESE,117,0.0,11.0,57,0.00,,,0.00,VWS V14.01,2013-02-18 02:29:00,
2013-02-17 21:34:00,15.3,2.4,29.85,ESE,115,0.0,8.0,56,0.00,,,0.00,VWS V14.01,2013-02-18 02:34:00,
2013-02-17 21:39:00,15.3,2.4,29.85,ESE,116,4.0,8.0,56,0.00,,,0.00,VWS V14.01,2013-02-18 02:39:00,
2013-02-17 21:45:00,15.3,2.8,29.85,ESE,116,4.0,8.0,57,0.00,,,0.00,VWS V14.01,2013-02-18 02:45:00,
2013-02-17 21:50:00,15.2,3.1,29.85,ESE,112,0.0,8.0,58,0.00,,,0.00,VWS V14.01,2013-02-18 02:50:00,
2013-02-17 21:55:00,15.0,3.3,29.85,ESE,113,1.0,8.0,59,0.00,,,0.00,VWS V14.01,2013-02-18 02:55:00,
2013-02-17 22:00:00,14.8,3.4,29.85,ENE,70,0.0,8.0,60,0.00,,,0.00,VWS V14.01,2013-02-18 03:00:00,
2013-02-17 22:05:00,14.6,2.9,29.85,South,188,0.0,2.0,59,0.00,,,0.00,VWS V14.01,2013-02-18 03:05:00,
2013-02-17 22:10:00,14.6,3.2,29.85,WSW,257,0.0,2.0,60,0.00,,,0.00,VWS V14.01,2013-02-18 03:10:00,
2013-02-17 22:15:00,14.5,2.8,29.85,West,276,0.0,14.0,59,0.00,,,0.00,VWS V14.01,2013-02-18 03:15:00,
2013-02-17 22:20:00,14.7,3.0,29.85,East,100,0.0,14.0,59,0.00,,,0.00,VWS V14.01,2013-02-18 03:20:00,
2013-02-17 22:25:00,14.8,2.7,29.85,WSW,248,1.0,14.0,58,0.00,,,0.00,VWS V14.01,2013-02-18 03:25:00,
2013-02-17 22:30:00,14.9,2.8,29.86,NNE,16,0.0,14.0,58,0.00,,,0.00,VWS V14.01,2013-02-18 03:30:00,
2013-02-17 22:35:00,14.9,2.8,29.86,ENE,62,0.0,5.0,58,0.00,,,0.00,VWS V14.01,2013-02-18 03:35:00,
2013-02-17 22:40:00,14.8,3.1,29.86,SSE,150,1.0,9.0,59,0.00,,,0.00,VWS V14.01,2013-02-18 03:40:00,
2013-02-17 22:46:00,14.8,2.7,29.86,NNE,13,1.0,9.0,58,0.00,,,0.00,VWS V14.01,2013-02-18 03:46:00,
2013-02-17 22:51:00,14.7,2.6,29.86,ENE,57,0.0,9.0,58,0.00,,,0.00,VWS V14.01,2013-02-18 03:51:00,
2013-02-17 22:56:00,14.6,3.2,29.87,ESE,107,1.0,9.0,60,0.00,,,0.00,VWS V14.01,2013-02-18 03:56:00,
2013-02-17 23:01:00,14.6,2.5,29.87,NNE,26,0.0,1.0,58,0.00,,,0.00,VWS V14.01,2013-02-18 04:01:00,
2013-02-17 23:06:00,14.6,2.9,29.87,NE,44,1.0,2.0,59,0.00,,,0.00,VWS V14.01,2013-02-18 04:06:00,
2013-02-17 23:11:00,14.5,2.8,29.87,ENE,68,1.0,5.0,59,0.00,,,0.00,VWS V14.01,2013-02-18 04:11:00,
2013-02-17 23:16:00,14.4,3.1,29.87,ENE,75,0.0,5.0,60,0.00,,,0.00,VWS V14.01,2013-02-18 04:16:00,
2013-02-17 23:21:00,14.4,3.1,29.88,ENE,78,2.0,6.0,60,0.00,,,0.00,VWS V14.01,2013-02-18 04:21:00,
2013-02-17 23:26:00,14.6,2.9,29.87,NNW,345,0.0,9.0,59,0.00,,,0.00,VWS V14.01,2013-02-18 04:26:00,
2013-02-17 23:31:00,14.6,2.9,29.88,NNW,348,1.0,3.0,59,0.00,,,0.00,VWS V14.01,2013-02-18 04:31:00,
2013-02-17 23:36:00,14.6,3.6,29.88,SE,144,0.0,6.0,61,0.00,,,0.00,VWS V14.01,2013-02-18 04:36:00,
2013-02-17 23:41:00,14.5,3.5,29.88,South,180,2.0,6.0,61,0.00,,,0.00,VWS V14.01,2013-02-18 04:41:00,
2013-02-17 23:47:00,14.4,3.4,29.89,ESE,111,2.0,6.0,61,0.00,,,0.00,VWS V14.01,2013-02-18 04:47:00,
2013-02-17 23:52:00,14.5,3.2,29.89,SE,132,2.0,8.0,60,0.00,,,0.00,VWS V14.01,2013-02-18 04:52:00,
2013-02-17 23:57:00,14.5,2.8,29.88,East,83,4.0,8.0,59,0.00,,,0.00,VWS V14.01,2013-02-18 04:57:00,